Comanche, TX

7:14 PM CST on November 22, 2019 (GMT -0600)
Comanche

Weather History for KMKN - October, 2019

Change the Weather History Date:

Monday, October 21, 2019

  Actual Average (WUND) Record (WUND)
Temperature  
Mean Temperature 62 °F -  
Max Temperature 72 °F - - (-1)
Min Temperature 51 °F - - (-1)
Degree Days  
Heating Degree Days 4    
Growing Degree Days 12 (Base 50)    
Moisture  
Dew Point 39 °F    
Average Humidity 44    
Maximum Humidity 100    
Minimum Humidity 21    
Precipitation  
Precipitation 0.28 in - - ()
Sea Level Pressure  
Sea Level Pressure 29.94 in    
Wind  
Wind Speed 9 mph ()    
Max Wind Speed 29 mph    
Max Gust Speed 37 mph    
Visibility 9.8 miles    
Events Rain , Thunderstorm    
Averages and records for this station are not official NWS values.
T = Trace of Precipitation, MM = Missing Value Source: Averaged Metar Reports

Daily Weather History Graph

Daily Weather History Graph

Search for Another Location

Airport or City:

Astronomy

Oct. 21, 2019 Rise Set
Actual Time 7:42 AM CDT 6:55 PM CDT
Civil Twilight 7:17 AM CDT 7:20 PM CDT
Nautical Twilight 6:48 AM CDT 7:48 PM CDT
Astronomical Twilight 6:20 AM CDT 8:17 PM CDT
Moon 12:20 AM CDT (10/21) 2:49 PM CDT (10/21)
Length of Visible Light 12h 03m
Length of Day
11h 13m
Waning Gibbous, 48% of the Moon is Illuminated
Oct 21
Waning Gibbous
Oct 27
New
Nov 4
First Quarter
Nov 12
Full
Nov 19
Last Quarter

Hourly Weather History & Observations

Time (CDT) Temp. Dew Point Humidity Pressure Visibility Wind Dir Wind Speed Gust Speed Precip Events Conditions
12:15 AM 68.5 °F 62.6 °F 81% 29.69 in 5.0 mi WNW 28.8 mph 36.8 mph 0.03 in Rain , Thunderstorm Heavy Thunderstorms and Rain
12:35 AM 68.4 °F 68.4 °F 100% 29.65 in 3.0 mi SW 16.1 mph 35.7 mph 0.28 in Rain , Thunderstorm Thunderstorms and Rain
12:55 AM 68.7 °F 68.7 °F 100% 29.70 in 10.0 mi NW 16.1 mph 21.9 mph 0.28 in   Mostly Cloudy
1:15 AM 70.7 °F 64.9 °F 82% 29.68 in 10.0 mi NW 15.0 mph 20.7 mph N/A   Overcast
1:35 AM 70.0 °F 57.6 °F 65% 29.74 in 10.0 mi WNW 9.2 mph - N/A Thunderstorm Mostly Cloudy
1:55 AM 69.6 °F 51.8 °F 53% 29.77 in 10.0 mi NW 5.8 mph - N/A Thunderstorm Scattered Clouds
2:15 AM 68.0 °F 46.9 °F 47% 29.79 in 10.0 mi NNW 10.4 mph - N/A   Clear
2:35 AM 66.9 °F 45.3 °F 46% 29.81 in 10.0 mi NNW 11.5 mph - N/A   Clear
2:55 AM 64.6 °F 47.1 °F 53% 29.83 in 10.0 mi North 6.9 mph - N/A   Clear
3:15 AM 62.8 °F 44.6 °F 51% 29.84 in 10.0 mi North 6.9 mph - N/A   Clear
3:35 AM 60.8 °F 45.5 °F 57% 29.84 in 10.0 mi North 5.8 mph - N/A   Clear
3:55 AM 60.8 °F 43.7 °F 53% 29.83 in 10.0 mi North 4.6 mph - N/A   Clear
4:15 AM 60.4 °F 43.0 °F 53% 29.85 in 10.0 mi NNW 3.5 mph - N/A   Clear
4:35 AM 59.0 °F 41.7 °F 53% 29.85 in 10.0 mi NW 4.6 mph - N/A   Clear
4:55 AM 58.1 °F 42.4 °F 56% 29.85 in 10.0 mi NW 5.8 mph - N/A   Clear
5:15 AM 57.7 °F 41.2 °F 54% 29.86 in 10.0 mi NW 6.9 mph - N/A   Clear
5:35 AM 56.8 °F 41.9 °F 57% 29.86 in 10.0 mi NW 6.9 mph - N/A   Clear
5:55 AM 55.9 °F 41.4 °F 58% 29.88 in 10.0 mi NW 6.9 mph - N/A   Clear
6:15 AM 55.8 °F 38.7 °F 53% 29.89 in 10.0 mi North 11.5 mph - N/A   Clear
6:35 AM 55.0 °F 38.3 °F 53% 29.90 in 10.0 mi NNW 6.9 mph - N/A   Clear
6:55 AM 53.8 °F 39.4 °F 58% 29.91 in 10.0 mi NNW 6.9 mph - N/A   Clear
7:15 AM 53.1 °F 39.6 °F 60% 29.92 in 10.0 mi NW 9.2 mph - N/A   Clear
7:35 AM 52.5 °F 39.2 °F 61% 29.93 in 10.0 mi NW 8.1 mph - N/A   Clear
7:55 AM 51.8 °F 37.8 °F 59% 29.94 in 10.0 mi NW 8.1 mph - N/A   Clear
8:15 AM 51.6 °F 37.4 °F 58% 29.94 in 10.0 mi NW 4.6 mph - N/A   Clear
8:35 AM 52.9 °F 37.4 °F 56% 29.95 in 10.0 mi NW 6.9 mph - N/A   Clear
8:55 AM 54.3 °F 37.6 °F 53% 29.96 in 10.0 mi NW 9.2 mph - N/A   Clear
9:15 AM 56.3 °F 38.8 °F 52% 29.97 in 10.0 mi NNW 5.8 mph - N/A   Clear
9:35 AM 58.6 °F 37.9 °F 46% 29.97 in 10.0 mi NNW 8.1 mph - N/A   Clear
9:55 AM 60.6 °F 37.0 °F 42% 29.98 in 10.0 mi NNW 9.2 mph - N/A   Clear
10:15 AM 62.1 °F 34.9 °F 36% 29.98 in 10.0 mi North 12.7 mph - N/A   Clear
10:35 AM 63.0 °F 34.2 °F 34% 29.99 in 10.0 mi North 13.8 mph 18.4 mph N/A   Clear
10:55 AM 64.2 °F 33.8 °F 32% 29.99 in 10.0 mi North 12.7 mph 18.4 mph N/A   Clear
11:15 AM 65.5 °F 33.8 °F 31% 29.99 in 10.0 mi North 11.5 mph - N/A   Clear
11:35 AM 66.4 °F 33.4 °F 29% 29.99 in 10.0 mi North 12.7 mph 16.1 mph N/A   Clear
11:55 AM 66.6 °F 33.1 °F 29% 29.99 in 10.0 mi North 13.8 mph - N/A   Clear
12:15 PM 67.3 °F 33.4 °F 29% 29.99 in 10.0 mi North 9.2 mph 16.1 mph N/A   Clear
12:35 PM 68.0 °F 33.8 °F 28% 29.99 in 10.0 mi North 10.4 mph - N/A   Clear
12:55 PM 68.7 °F 34.3 °F 28% 29.99 in 10.0 mi NNE 6.9 mph 17.3 mph N/A   Clear
1:15 PM 68.9 °F 32.5 °F 26% 29.98 in 10.0 mi North 6.9 mph - N/A   Clear
1:35 PM 69.3 °F 32.5 °F 26% 29.98 in 10.0 mi North 5.8 mph - N/A   Clear
1:55 PM 70.2 °F 32.0 °F 24% 29.97 in 10.0 mi NNE 6.9 mph - N/A   Clear
2:15 PM 70.9 °F 32.7 °F 24% 29.96 in 10.0 mi North 4.6 mph - N/A   Clear
2:35 PM 70.9 °F 33.1 °F 25% 29.95 in 10.0 mi NW 8.1 mph - N/A   Clear
2:55 PM 71.6 °F 31.5 °F 23% 29.95 in 10.0 mi NNW 3.5 mph - N/A   Clear
3:15 PM 72.0 °F 32.9 °F 24% 29.95 in 10.0 mi WSW 4.6 mph - N/A   Clear
3:35 PM 72.5 °F 32.2 °F 23% 29.94 in 10.0 mi NW 6.9 mph - N/A   Clear
3:55 PM 71.8 °F 31.8 °F 23% 29.94 in 10.0 mi NNW 3.5 mph - N/A   Clear
4:15 PM 72.0 °F 32.0 °F 23% 29.94 in 10.0 mi NNW 5.8 mph - N/A   Clear
4:35 PM 71.6 °F 30.7 °F 22% 29.94 in 10.0 mi Calm Calm - N/A   Clear
4:55 PM 71.8 °F 30.7 °F 22% 29.95 in 10.0 mi NNW 4.6 mph - N/A   Clear
5:15 PM 72.1 °F 30.6 °F 22% 29.95 in 10.0 mi NW 6.9 mph - N/A   Clear
5:35 PM 71.4 °F 31.6 °F 23% 29.95 in 10.0 mi North 5.8 mph - N/A   Clear
5:55 PM 71.1 °F 29.1 °F 21% 29.95 in 10.0 mi NW 3.5 mph - N/A   Clear
6:15 PM 68.9 °F 34.7 °F 28% 29.95 in 10.0 mi Calm Calm - N/A   Clear
6:35 PM 67.3 °F 35.1 °F 30% 29.96 in 10.0 mi East 3.5 mph - N/A   Clear
6:55 PM 65.1 °F 35.8 °F 34% 29.96 in 10.0 mi East 4.6 mph - N/A   Clear
7:15 PM 63.5 °F 35.1 °F 35% 29.97 in 10.0 mi ENE 4.6 mph - N/A   Clear
7:35 PM 63.5 °F 34.7 °F 34% 29.98 in 10.0 mi ENE 4.6 mph - N/A   Clear
7:55 PM 61.3 °F 34.7 °F 37% 30.00 in 10.0 mi NE 4.6 mph - N/A   Clear
8:15 PM 60.4 °F 35.8 °F 40% 30.02 in 10.0 mi NE 3.5 mph - N/A   Clear
8:35 PM 60.4 °F 36.0 °F 40% 30.02 in 10.0 mi ENE 3.5 mph - N/A   Clear
8:55 PM 59.9 °F 37.0 °F 43% 30.04 in 10.0 mi NE 4.6 mph - N/A   Clear
9:15 PM 58.5 °F 38.7 °F 48% 30.05 in 10.0 mi NNE 3.5 mph - N/A   Clear
9:35 PM 58.6 °F 37.8 °F 46% 30.06 in 10.0 mi ENE 3.5 mph - N/A   Clear
9:55 PM 57.9 °F 38.7 °F 49% 30.07 in 10.0 mi ENE 3.5 mph - N/A   Clear
10:15 PM 57.6 °F 38.8 °F 50% 30.08 in 10.0 mi ENE 3.5 mph - N/A   Clear
10:35 PM 57.2 °F 38.5 °F 50% 30.09 in 10.0 mi Calm Calm - N/A   Clear
10:55 PM 56.7 °F 36.9 °F 48% 30.09 in 10.0 mi East 3.5 mph - N/A   Clear
11:15 PM 55.0 °F 37.2 °F 51% 30.11 in 10.0 mi Calm Calm - N/A   Clear
11:35 PM 55.6 °F 36.9 °F 49% 30.12 in 10.0 mi Calm Calm - N/A   Clear
11:55 PM 55.4 °F 35.8 °F 48% 30.13 in 10.0 mi South 3.5 mph - N/A   Clear